Content
SEND FEEDBACK

Daily
Averages
Monthly
Summary
United States of America

LOVELADY, TEXAS


Home > North America > United States > Texas
Elevation: 293 feet     Latitude: 31 08N     Longitude: 095 27W

WEATHER
 
SELECT A DAY
Number of Records: 198,620;   Date Range: 7/12/05 - 7/22/14
 
SHARE

PRINT THIS DATA

[ ← Previous Day ]
WEATHER ALMANAC - FEBRUARY 13, 2013
[ Next Day → ]
[ °C ]   °F
Weather ElementAverageHighLow
Temperature44.8 °F51.8 °F (12:55 pm)32 °F (11:55 pm)
Dewpoint37.6 °F44.6 °F (12:55 am)32 °F (10:35 pm)
Humidity76.9 %100 % (8:35 pm)58 % (12:55 pm)
Barometer30.11 in30.17 in (9:15 am)30.02 in (12:35 am)
Wind Speed4.5 mph12.7 mph (2:35 am)
Wind Gust19.6 mph (3:55 am)
Weather ElementAverage
Visibility10 mi
Wind DirectionSSE (170.4 °)

Weather ElementTotal
Precipitation---
Heating Degree Days23.1 (Base 65)
Averaged from 71 records on February 13, 2013
WEATHER CONDITIONS BREAKOUT
WIND DIRECTION BREAKOUT
WEATHER BY HOUR - FEBRUARY 13, 2013
[ °C ]   °F
Local TimeTemperatureDewpointHumidityBarometerVisibilityWind DirectionWind SpeedGust SpeedPrecipitationEventsConditions
12:35 AM48.2 °F42.8 °F82 %30.02 in10.0 miNW (310°)6.9 mphMostly Cloudy
12:55 AM48.2 °F44.6 °F87 %30.02 in10.0 miNW (310°)4.6 mphMostly Cloudy
1:15 AM48.2 °F42.8 °F82 %30.03 in10.0 miNW (310°)8.1 mphOvercast
1:35 AM48.2 °F44.6 °F87 %30.03 in10.0 miWNW (300°)8.1 mphOvercast
1:55 AM48.2 °F44.6 °F87 %30.02 in10.0 miWNW (290°)10.4 mphOvercast
2:15 AM48.2 °F44.6 °F87 %30.05 in10.0 miWest (280°)8.1 mphOvercast
2:35 AM48.2 °F42.8 °F82 %30.05 in10.0 miWNW (290°)12.7 mph16.1 mphOvercast
2:55 AM46.4 °F41.0 °F81 %30.07 in10.0 miWNW (290°)9.2 mph17.3 mphOvercast
3:15 AM46.4 °F39.2 °F76 %30.07 in10.0 miNW (310°)10.4 mph18.4 mphOvercast
3:35 AM46.4 °F39.2 °F76 %30.08 in10.0 miWNW (290°)12.7 mphOvercast
3:55 AM46.4 °F39.2 °F76 %30.08 in10.0 miNW (310°)9.2 mph19.6 mphOvercast
4:15 AM46.4 °F37.4 °F71 %30.08 in10.0 miNW (310°)12.7 mphOvercast
4:35 AM44.6 °F37.4 °F76 %30.08 in10.0 miNW (320°)12.7 mph17.3 mphOvercast
4:55 AM44.6 °F37.4 °F76 %30.07 in10.0 miNW (320°)10.4 mphScattered Clouds
5:15 AM42.8 °F37.4 °F81 %30.08 in10.0 miNW (310°)8.1 mphClear
5:35 AM42.8 °F37.4 °F81 %30.09 in10.0 miNW (320°)10.4 mph17.3 mphScattered Clouds
5:55 AM42.8 °F37.4 °F81 %30.10 in10.0 miNNW (330°)8.1 mphMostly Cloudy
6:15 AM42.8 °F35.6 °F76 %30.10 in10.0 miNW (320°)5.8 mphClear
6:35 AM41.0 °F35.6 °F81 %30.12 in10.0 miNW (320°)6.9 mphClear
6:55 AM41.0 °F35.6 °F81 %30.12 in10.0 miNNW (330°)5.8 mphScattered Clouds
7:15 AM42.8 °F37.4 °F81 %30.13 in10.0 miNW (320°)4.6 mphMostly Cloudy
7:35 AM42.8 °F37.4 °F81 %30.14 in10.0 miNNW (330°)3.5 mphScattered Clouds
7:55 AM44.6 °F37.4 °F76 %30.14 in10.0 miNNW (330°)9.2 mphOvercast
8:15 AM44.6 °F37.4 °F76 %30.15 in10.0 miNNW (330°)6.9 mphOvercast
8:35 AM44.6 °F37.4 °F76 %30.16 in10.0 miCalmOvercast
8:55 AM44.6 °F37.4 °F76 %30.16 in10.0 miNNW (330°)8.1 mphMostly Cloudy
9:15 AM44.6 °F35.6 °F71 %30.17 in10.0 miNW (320°)10.4 mphMostly Cloudy
9:35 AM44.6 °F37.4 °F76 %30.17 in10.0 miNorth (350°)9.2 mphOvercast
9:55 AM46.4 °F35.6 °F66 %30.17 in10.0 miNW (320°)10.4 mph16.1 mphOvercast
10:15 AM46.4 °F37.4 °F71 %30.17 in10.0 miNNW (330°)8.1 mphOvercast
10:35 AM46.4 °F37.4 °F71 %30.17 in10.0 miNW (320°)9.2 mphOvercast
10:55 AM46.4 °F37.4 °F71 %30.17 in10.0 miNNW (330°)8.1 mphOvercast
11:15 AM46.4 °F37.4 °F71 %30.17 in10.0 miWNW (290°)5.8 mphMostly Cloudy
11:35 AM48.2 °F37.4 °F66 %30.17 in10.0 miCalmMostly Cloudy
11:55 AM48.2 °F37.4 °F66 %30.17 in10.0 miNNW (330°)5.8 mphMostly Cloudy
12:15 PM48.2 °F37.4 °F66 %30.16 in10.0 miNorth (360°)9.2 mphScattered Clouds
12:35 PM50.0 °F37.4 °F62 %30.15 in10.0 miNorth (10°)5.8 mph16.1 mphMostly Cloudy
12:55 PM51.8 °F37.4 °F58 %30.14 in10.0 miCalmScattered Clouds
1:15 PM50.0 °F37.4 °F62 %30.13 in10.0 miCalmMostly Cloudy
1:35 PM50.0 °F37.4 °F62 %30.12 in10.0 miCalmMostly Cloudy
1:55 PM50.0 °F39.2 °F66 %30.12 in10.0 miCalmMostly Cloudy
2:15 PM50.0 °F37.4 °F62 %30.11 in10.0 miNNW (330°)6.9 mphMostly Cloudy
2:35 PM51.8 °F39.2 °F62 %30.11 in10.0 miNNW (330°)5.8 mphMostly Cloudy
2:55 PM51.8 °F39.2 °F62 %30.10 in10.0 miCalmScattered Clouds
3:15 PM51.8 °F39.2 °F62 %30.10 in10.0 miNW (310°)4.6 mphPartly Cloudy
3:35 PM51.8 °F37.4 °F58 %30.10 in10.0 miNorth (360°)3.5 mphPartly Cloudy
3:55 PM51.8 °F37.4 °F58 %30.10 in10.0 miCalmClear
4:15 PM51.8 °F37.4 °F58 %30.10 in10.0 miCalmClear
4:35 PM51.8 °F39.2 °F62 %30.10 in10.0 miCalmClear
4:55 PM51.8 °F37.4 °F58 %30.10 in10.0 miCalmClear
5:15 PM51.8 °F37.4 °F58 %30.10 in10.0 miCalmClear
5:35 PM51.8 °F37.4 °F58 %30.09 in10.0 miCalmClear
5:55 PM48.2 °F37.4 °F66 %30.10 in10.0 miCalmClear
6:15 PM46.4 °F39.2 °F76 %30.10 in10.0 miCalmClear
6:35 PM42.8 °F39.2 °F87 %30.10 in10.0 miCalmClear
6:55 PM42.8 °F39.2 °F87 %30.11 in10.0 miCalmClear
7:15 PM41.0 °F37.4 °F87 %30.11 in10.0 miCalmClear
7:35 PM39.2 °F37.4 °F93 %30.11 in10.0 miCalmClear
7:55 PM39.2 °F37.4 °F93 %30.12 in10.0 miCalmClear
8:15 PM37.4 °F35.6 °F93 %30.13 in10.0 miCalmClear
8:35 PM37.4 °F37.4 °F100 %30.12 in10.0 miCalmClear
8:55 PM37.4 °F35.6 °F93 %30.13 in9.0 miCalmClear
9:15 PM35.6 °F35.6 °F100 %30.13 in10.0 miCalmClear
9:35 PM35.6 °F33.8 °F93 %30.13 in10.0 miCalmClear
9:55 PM35.6 °F33.8 °F93 %30.13 in10.0 miCalmClear
10:15 PM35.6 °F33.8 °F93 %30.13 in10.0 miCalmClear
10:35 PM33.8 °F32.0 °F93 %30.13 in10.0 miCalmClear
10:55 PM33.8 °F32.0 °F93 %30.13 in10.0 miCalmClear
11:15 PM33.8 °F32.0 °F93 %30.13 in10.0 miCalmClear
11:35 PM33.8 °F32.0 °F93 %30.13 in10.0 miCalmClear
11:55 PM32.0 °F32.0 °F100 %30.13 in10.0 miCalmClear
Hourly data recorded from KDKR, located miles away from Lovelady, Texas







STORIES FROM OUR PARTNERS